Location: Bazinghen
(50.8246°N, 1.6616°E)
Time: 01:39:36
(UTC+00:00)

In-Cosmos 22 Rocket - Pass Details

Date: 09 April 2020
Orbit: 790 x 888 km, 81.2° (Epoch: 03 June)

Event Time Altitude Azimuth Distance (km) Brightness Sun altitude
Rises 20:20:13 0° 347° (NNW) 3,507 8.2 -15.3°
Reaches altitude 10° 20:22:41 10° 349° (NNW) 2,566 7.4 -15.6°
Maximum altitude 20:28:33 83° 77° (ENE) 902 4.2 -16.3°
Enters shadow 20:32:53 19° 165° (SSE) 1,981 5.7 -16.9°
